Showing default

ORBCOMM FM 113, 41185

Orbit data source: Space-Track

ORBCOMM FM 113, 41185 is a payload satellite owned by Orbcomm (US) in LEO that was launched on Tue, 22 Dec 2015 UTC via an FALCON 9 launch vehicle from the Air Force Eastern Test Range (AFETR). Payloads include a variety of satellites, spacecraft, and rockets equipped with specific instruments for various scientific and technological missions. These include communications satellites like Starlink; space stations such as the ISS; scientific satellites like the Hubble; Earth observation satellites from companies like Planet Labs, Umbra, and HawkEye 360; GPS; miniature CubeSats for education and research; and military/defense satellites.

Loading next visibility...
ORBCOMM FM 113 details
Identifier
41185, 2015-081G
Orbit
LEO
Last TLE update22 hours ago
Origin
Flag of USOrbcomm (US / ORB)
ManufacturerSNC Louisville
MissionOperational Commercial Communications
Bus & MotorSN-100A, Unknown motor
Mass172 kg wet, 158 kg dry
Launch date (UTC)
2015-12-22 (9 years ago)
Launch vehicle
FALCON 9
Launch site
Air Force Eastern Test Range (AFETR)
Object type
Payload
Rocket body
Debris
Shape & HBRBox + 1 Pan + 1 Ant, 13 m
Radar Cross Section2.222 m², Medium (>0.1 m² and < 1m²)

Expand to show TLE details & history

TLE from 22 hours ago
0 ORBCOMM FM 113
1 41185U 15081G   24360.55959905  .00003320  00000-0  75813-3 0  9991
2 41185  47.0006 295.3576 0001583 333.6693  26.4112 14.57617387480383
Epoch: 2024-12-25T13:25Z
Definitive object data (Epoch: 2024-12-25T13:25:49.357Z)
Latitude-0.00001°
Longitude-0.64967°
Altitude700.089 km
Speed7.508 km/s
True Right ascension19h 41m 25s
True Declination0° 00' 00"
Sunlit
Object was in daylight at TLE epoch
Visualization TLE readout
Latitude-33.86662°
Longitude-146.56615°
Altitude711.229 km
Speed7.5 km/s
Apparent Right ascension06h 31m 25s
Apparent Declination-75° 48' 50"
Sunlit
Object is in daylight
Visualization observer readout
Local Sidereal Time11:13:15
Azimuth196.176° SSW
Elevation-34.002°
Doppler factor1
Orbital elements
Apogee altitude703.233 km
Perigee altitude700.991 km
Semi-major axis7,080.249 km
Eccentricity0.0001583
Inclination47.0006°
RAAN295.3576°
Arg. of periapsis333.6693°
True anomaly26.41927°
Mean anomaly26.4112°
Eccentric anomaly26.41523°
Mean motion3.64309 °/min
BSTAR0.00075813
Orbital period98.82 mins
Loading maneuver chart data...
Loading historical data...
Loading historical data...
Loading historical data...
Loading historical data...
Loading historical data...
Loading historical data...
Loading historical data...

ORBCOMM FM 113 Visibility forecast

Observer location: undefined°, undefined

Span
Click to sort rows by Start time (UTC) header in descending order
Start Az.
Max El. time (UTC)
Max El. Az.
Max El.
End time (UTC)
End Az.
7 mins2024-12-26 22:31:50.621Z212.789° SW2024-12-26 22:34:50.621Z143.267° SSE38.805°2024-12-26 22:38:50.621Z70.959° E
8 mins2024-12-27 00:14:50.621Z271.557° WNW2024-12-27 00:18:50.621Z358.981° N37.01°2024-12-27 00:22:50.621Z56.864° ENE
7 mins2024-12-27 01:59:50.621Z307.356° NW2024-12-27 02:02:50.621Z6.284° NNE30.703°2024-12-27 02:06:50.621Z67.565° E
7 mins2024-12-27 03:43:50.621Z307.045° NW2024-12-27 03:46:50.621Z20.569° NNE41.71°2024-12-27 03:50:50.621Z101.798° ESE
7 mins2024-12-27 05:26:50.621Z278.86° WNW2024-12-27 05:29:50.621Z231.666° WSW30.161°2024-12-27 05:33:50.621Z159.583° S
|